This is the latest recevied weather packets stored in our database for station/object SP3OTE-2. If no packets are shown the sender has not sent any weather packets the latest 10 day(s).
| Time | Temp. | Humidity | Pressure | Rain* | Wind** | Luminosity | Snow |
|---|---|---|---|---|---|---|---|
| 1777891574 | 26.11° C | 35% | 1013.4 hPa | - | - | - | - |
| 1777890973 | 25.56° C | 37% | 1013.3 hPa | - | - | - | - |
| 1777890373 | 25° C | 37% | 1013.5 hPa | - | - | - | - |
| 1777889773 | 25.56° C | 36% | 1013.8 hPa | - | - | - | - |
| 1777889172 | 25° C | 38% | 1013.8 hPa | - | - | - | - |
| 1777888572 | 24.44° C | 38% | 1013.9 hPa | - | - | - | - |
| 1777887972 | 23.89° C | 38% | 1014 hPa | - | - | - | - |
| 1777887371 | 24.44° C | 37% | 1014 hPa | - | - | - | - |
| 1777886771 | 23.89° C | 38% | 1014 hPa | - | - | - | - |
| 1777886171 | 23.89° C | 38% | 1014.2 hPa | - | - | - | - |
| 1777885571 | 23.33° C | 39% | 1014.2 hPa | - | - | - | - |
| 1777884970 | 22.78° C | 40% | 1014.5 hPa | - | - | - | - |
| 1777884370 | 22.22° C | 41% | 1014.4 hPa | - | - | - | - |
| 1777883770 | 21.67° C | 42% | 1014.4 hPa | - | - | - | - |
| 1777883170 | 21.67° C | 42% | 1014.4 hPa | - | - | - | - |
| 1777882570 | 20.56° C | 43% | 1014.4 hPa | - | - | - | - |
| 1777881969 | 20.56° C | 43% | 1014.4 hPa | - | - | - | - |
| 1777881369 | 20° C | 43% | 1014.4 hPa | - | - | - | - |
| 1777880769 | 20° C | 43% | 1014.3 hPa | - | - | - | - |
| 1777880169 | 19.44° C | 43% | 1014.2 hPa | - | - | - | - |
| 1777879568 | 19.44° C | 44% | 1014.3 hPa | - | - | - | - |
| 1777878968 | 19.44° C | 44% | 1014.3 hPa | - | - | - | - |
| 1777878368 | 19.44° C | 44% | 1014.2 hPa | - | - | - | - |
| 1777877768 | 18.89° C | 44% | 1014.3 hPa | - | - | - | - |
| 1777877167 | 18.89° C | 44% | 1014.2 hPa | - | - | - | - |
* Rain since midnight (hover to see other rain measurements)
** Current wind speed in m/s (hover to see current wind gust speed)